Location: Newark
(45.4422°N, 16.2769°E)
Time: 20:21:47
(UTC+00:00)

Courier 1B - Pass Details

Date: 11 December 2019
Orbit: 962 x 1209 km, 28.3° (Epoch: 28 January)

Event Time Altitude Azimuth Distance (km) Brightness Sun altitude
Rises 20:57:44 0° 235° (SW) 3,940 - -58.3°
Reaches altitude 10° 21:01:14 10° 219° (SW) 3,024 - -58.8°
Maximum altitude 21:06:28 21° 175° (S) 2,378 - -59.5°
Drops below altitude 10° 21:11:51 10° 131° (SE) 3,119 - -60.3°
Sets 21:15:32 0° 116° (ESE) 4,100 - -60.7°
